When you browse on this site, cookies collect data to enhance your experience and personalize the content and advertising you see.
Visit our Privacy Policy to learn more. By continuing to use the site, you agree to this use of cookies and data.
  • In Hungary
  • List of Countries
  • For 7 days
  • Water Temperature
  • Satellite Maps
  • Weather Map
  • News
  • Weather Widgets
  • user-avatar
    Login

    Hourly Weather Verhnyaya Krasnaya Gorka

    Today, 20 January, Sunday

    Time Temperature Precipitation Wind Pressure Humidity
    00:00 -13°C° 0 mm 1 mps 749 mmHg 94%
    01:00 -15°C° 0 mm 2 mps 749 mmHg 95%
    02:00 -16°C° 0 mm 2 mps 749 mmHg 95%
    03:00 -16°C° 0 mm 2 mps 750 mmHg 96%
    04:00 -15°C° 0 mm 2 mps 750 mmHg 96%
    05:00 -15°C° 0 mm 2 mps 750 mmHg 97%
    06:00 -14°C° 0 mm 2 mps 750 mmHg 97%
    07:00 -14°C° 0 mm 2 mps 751 mmHg 97%
    08:00 -15°C° 0 mm 3 mps 751 mmHg 96%
    09:00 -14°C° 0 mm 3 mps 751 mmHg 96%
    10:00 -14°C° 0 mm 3 mps 751 mmHg 94%
    11:00 -13°C° 0 mm 3 mps 752 mmHg 91%
    12:00 -12°C° 0 mm 4 mps 752 mmHg 89%
    13:00 -13°C° 0 mm 3 mps 752 mmHg 91%
    14:00 -13°C° 0 mm 3 mps 752 mmHg 92%
    15:00 -14°C° 0 mm 3 mps 752 mmHg 93%
    16:00 -15°C° 0 mm 3 mps 752 mmHg 95%
    17:00 -16°C° 0 mm 3 mps 752 mmHg 96%
    18:00 -17°C° 0 mm 3 mps 752 mmHg 97%
    19:00 -16°C° 0 mm 3 mps 752 mmHg 96%
    20:00 -15°C° 0 mm 4 mps 752 mmHg 95%
    21:00 -14°C° 0 mm 4 mps 751 mmHg 94%
    22:00 -14°C° 0.1 mm 5 mps 751 mmHg 93%
    23:00 -13°C° 0.1 mm 5 mps 751 mmHg 91%

    Tomorrow, 21 January, Monday

    Time Temperature Precipitation Wind Pressure Humidity
    00:00 -12°C° 0.1 mm 5 mps 750 mmHg 90%
    01:00 -12°C° 0.1 mm 5 mps 750 mmHg 90%
    02:00 -12°C° 0.1 mm 5 mps 750 mmHg 90%
    03:00 -12°C° 0.1 mm 5 mps 750 mmHg 90%
    04:00 -12°C° 0.2 mm 5 mps 750 mmHg 90%
    05:00 -12°C° 0.2 mm 5 mps 750 mmHg 90%
    06:00 -12°C° 0.2 mm 5 mps 749 mmHg 90%
    07:00 -12°C° 0.1 mm 5 mps 749 mmHg 90%
    08:00 -12°C° 0.1 mm 5 mps 749 mmHg 90%
    09:00 -12°C° 0.1 mm 5 mps 750 mmHg 90%
    10:00 -12°C° 0.1 mm 5 mps 749 mmHg 90%
    11:00 -11°C° 0.1 mm 5 mps 749 mmHg 89%
    12:00 -11°C° 0.1 mm 5 mps 749 mmHg 89%
    13:00 -11°C° 0.1 mm 5 mps 749 mmHg 90%
    14:00 -10°C° 0.1 mm 4 mps 749 mmHg 90%
    15:00 -10°C° 0.1 mm 4 mps 749 mmHg 91%
    16:00 -11°C° 0.1 mm 4 mps 749 mmHg 92%
    17:00 -10°C° 0.1 mm 3 mps 748 mmHg 93%
    18:00 -12°C° 0.1 mm 3 mps 748 mmHg 95%
    19:00 -10°C° 0.2 mm 2 mps 748 mmHg 95%
    20:00 -10°C° 0.2 mm 2 mps 747 mmHg 96%
    21:00 -10°C° 0.2 mm 1 mps 747 mmHg 97%
    22:00 -10°C° 0.1 mm 1 mps 747 mmHg 97%
    23:00 -10°C° 0.1 mm 1 mps 747 mmHg 97%

    Day after tomorrow, 22 January, Tuesday

    Time Temperature Precipitation Wind Pressure Humidity
    00:00 -10°C° 0.1 mm 1 mps 746 mmHg 97%
    01:00 -11°C° 0.1 mm 1 mps 746 mmHg 97%
    02:00 -11°C° 0.1 mm 1 mps 746 mmHg 97%
    03:00 -11°C° 0.1 mm 1 mps 746 mmHg 97%
    04:00 -14°C° 0.1 mm 2 mps 746 mmHg 97%
    05:00 -14°C° 0.1 mm 2 mps 746 mmHg 97%
    06:00 -15°C° 0.1 mm 3 mps 746 mmHg 96%
    07:00 -16°C° 0 mm 3 mps 747 mmHg 96%
    08:00 -17°C° 0 mm 3 mps 748 mmHg 96%
    09:00 -18°C° 0 mm 3 mps 748 mmHg 96%
    10:00 -18°C° 0 mm 3 mps 749 mmHg 94%
    11:00 -18°C° 0 mm 3 mps 749 mmHg 93%
    12:00 -18°C° 0 mm 4 mps 750 mmHg 92%
    13:00 -19°C° 0 mm 4 mps 750 mmHg 92%
    14:00 -19°C° 0 mm 3 mps 751 mmHg 92%
    15:00 -19°C° 0 mm 3 mps 751 mmHg 92%
    16:00 -22°C° 0 mm 3 mps 752 mmHg 94%
    17:00 -23°C° 0 mm 3 mps 752 mmHg 95%
    18:00 -24°C° 0 mm 3 mps 753 mmHg 97%
    19:00 -25°C° 0 mm 3 mps 753 mmHg 97%
    20:00 -26°C° 0 mm 3 mps 754 mmHg 98%
    21:00 -26°C° 0 mm 2 mps 755 mmHg 98%
    22:00 -26°C° 0 mm 2 mps 755 mmHg 98%
    23:00 -27°C° 0 mm 2 mps 755 mmHg 98%

    23 January, Wednesday

    Time Temperature Precipitation Wind Pressure Humidity
    00:00 -27°C° 0 mm 2 mps 756 mmHg 98%
    01:00 -27°C° 0 mm 2 mps 756 mmHg 98%
    02:00 -27°C° 0 mm 2 mps 757 mmHg 98%
    03:00 -27°C° 0 mm 2 mps 757 mmHg 98%
    04:00 -27°C° 0 mm 2 mps 757 mmHg 98%
    05:00 -27°C° 0 mm 2 mps 757 mmHg 98%
    06:00 -26°C° 0 mm 2 mps 757 mmHg 98%
    07:00 -26°C° 0 mm 2 mps 758 mmHg 98%
    08:00 -25°C° 0 mm 2 mps 758 mmHg 98%
    09:00 -25°C° 0 mm 2 mps 759 mmHg 98%
    10:00 -24°C° 0 mm 2 mps 759 mmHg 97%
    11:00 -23°C° 0 mm 3 mps 759 mmHg 96%
    12:00 -22°C° 0 mm 3 mps 760 mmHg 95%
    13:00 -22°C° 0 mm 3 mps 760 mmHg 95%
    14:00 -20°C° 0 mm 2 mps 760 mmHg 96%
    15:00 -20°C° 0 mm 2 mps 760 mmHg 96%
    16:00 -23°C° 0 mm 2 mps 760 mmHg 97%
    17:00 -24°C° 0 mm 2 mps 760 mmHg 97%
    18:00 -25°C° 0 mm 2 mps 761 mmHg 98%
    19:00 -25°C° 0 mm 2 mps 761 mmHg 98%
    20:00 -25°C° 0 mm 2 mps 761 mmHg 98%
    21:00 -25°C° 0 mm 2 mps 761 mmHg 98%
    22:00 -26°C° 0 mm 3 mps 761 mmHg 98%
    23:00 -25°C° 0 mm 3 mps 761 mmHg 98%

    24 January, Thursday

    Time Temperature Precipitation Wind Pressure Humidity
    00:00 -25°C° 0 mm 3 mps 761 mmHg 97%
    01:00 -25°C° 0 mm 3 mps 760 mmHg 97%
    02:00 -24°C° 0 mm 3 mps 760 mmHg 97%
    03:00 -24°C° 0 mm 3 mps 760 mmHg 97%
    04:00 -25°C° 0 mm 4 mps 760 mmHg 96%
    05:00 -24°C° 0 mm 4 mps 759 mmHg 96%
    06:00 -24°C° 0 mm 4 mps 759 mmHg 96%
    07:00 -23°C° 0 mm 4 mps 759 mmHg 94%
    08:00 -22°C° 0 mm 4 mps 759 mmHg 93%
    09:00 -20°C° 0 mm 5 mps 758 mmHg 92%
    10:00 -19°C° 0 mm 5 mps 758 mmHg 88%
    11:00 -18°C° 0 mm 6 mps 758 mmHg 83%
    12:00 -17°C° 0 mm 6 mps 758 mmHg 79%
    13:00 -17°C° 0.1 mm 6 mps 758 mmHg 82%
    14:00 -16°C° 0.1 mm 6 mps 758 mmHg 84%
    15:00 -16°C° 0.1 mm 6 mps 758 mmHg 87%
    16:00 -15°C° 0.2 mm 5 mps 758 mmHg 88%
    17:00 -17°C° 0.2 mm 5 mps 758 mmHg 90%
    18:00 -16°C° 0.2 mm 4 mps 758 mmHg 91%
    19:00 -16°C° 0.1 mm 4 mps 759 mmHg 92%
    20:00 -16°C° 0.1 mm 3 mps 759 mmHg 94%
    21:00 -17°C° 0.1 mm 3 mps 759 mmHg 95%
    22:00 -16°C° 0 mm 2 mps 759 mmHg 96%
    23:00 -17°C° 0 mm 2 mps 760 mmHg 97%

    25 January, Friday

    Time Temperature Precipitation Wind Pressure Humidity
    00:00 -18°C° 0 mm 2 mps 760 mmHg 98%
    01:00 -19°C° 0 mm 2 mps 760 mmHg 98%
    02:00 -17°C° 0 mm 1 mps 760 mmHg 98%
    03:00 -18°C° 0 mm 1 mps 760 mmHg 99%
    04:00 -19°C° 0 mm 1 mps 760 mmHg 99%
    05:00 -20°C° 0 mm 1 mps 760 mmHg 99%
    06:00 -20°C° 0 mm 0 mps 760 mmHg 100%
    07:00 -20°C° 0 mm 0 mps 760 mmHg 99%
    08:00 -20°C° 0 mm 0 mps 761 mmHg 99%
    09:00 -20°C° 0 mm 0 mps 761 mmHg 99%
    10:00 -19°C° 0 mm 1 mps 761 mmHg 97%
    11:00 -18°C° 0 mm 1 mps 761 mmHg 95%
    12:00 -17°C° 0 mm 1 mps 761 mmHg 94%
    13:00 -17°C° 0 mm 1 mps 761 mmHg 94%
    14:00 -17°C° 0 mm 1 mps 761 mmHg 95%
    15:00 -19°C° 0 mm 2 mps 761 mmHg 95%
    16:00 -20°C° 0 mm 2 mps 761 mmHg 96%
    17:00 -23°C° 0 mm 2 mps 761 mmHg 96%
    18:00 -24°C° 0 mm 2 mps 761 mmHg 96%
    19:00 -24°C° 0 mm 2 mps 761 mmHg 96%
    20:00 -25°C° 0 mm 2 mps 761 mmHg 96%
    21:00 -26°C° 0 mm 3 mps 761 mmHg 96%
    22:00 -26°C° 0 mm 3 mps 761 mmHg 97%
    23:00 -26°C° 0 mm 3 mps 761 mmHg 97%
    Show more